Карточка аэропорта UATT

Внимание!
Информация на этой странице в стадии наполнения.
Если вы не увидели какой-то информации, или заметили неточность - пожалуйста сообщите нам!
Спасибо!
Команда RU-STAFF
Название аэропортаАктобе
Название аэропорта (англ.)Aktobe
Превышение738 ft. (224.9 m.)
Координаты50°14.748', 57°12.402'
Высота перехода10000ft
Эшелон переходаFL120, QNH<733:FL130
Коды ответчика3440-3447, 3540-3547
Зона ОрВДАктобе РПИ (UATT)
Данные METARUATT 210930Z 29005MPS 240V340 CAVOK 29/10 Q1004 NOSIG RMK QFE733/0977
Проноз погоды (TAF)UATT 210500Z 2106/2206 32006MPS 9999 SCT033CB TX30/2111Z TN17/2200Z TEMPO 2106/2114 01009MPS BECMG 2114/2115 05006MPS BECMG 2118/2119 VRB01MPS BECMG 2202/2203 15006MPS
NOTAMshow/hide NOTAM
AWOS   TABLE

Информация о ВПП

ВПП Длина ВПП (м.) Покрытие Курс ВПП Частота ILS
313202Бетон315111.7
133202Бетон135111.7

Диспетчерские позиции




Спутниковое изображение